Regional Weather Roundup
Issued by NWS Sterling, VA

Home | Current Version | Previous Version | Graphics & Text | Print | Product List | Glossary On
Versions: 1 2 3 4 5 6 7 8 9 10 11 12 13 14 15 16 17 18 19 20 21 22 23 24 25 26 27 28 29 30 31 32 33 34 35 36 37 38 39 40 41 42 43 44 45 46 47 48 49
000
ASUS41 KLWX 271210
RWRLWX

REGIONAL WEATHER ROUNDUP
NATIONAL WEATHER SERVICE BALTIMORE MD/WASHINGTON DC
800 AM EDT THU AUG 27 2015

Note: "FAIR" indicates few or no clouds below 12,000 feet
with no significant weather and/or obstructions to visibility.
 TC=TEMPERATURE CELSIUS

 * =Non NWS site. Station does not report precipitation (e.g. rain,
    snow, etc.), thunder, or fog.

DCZ001-MDZ009-015-VAZ040>042-051-053>054-271300-
WASHINGTON METRO

CITY           SKY/WX    TMP DP  RH WIND       PRES   REMARKS
WASHINGTON NAT MOSUNNY   67  57  70 N13       30.12R
DULLES         PTSUNNY   63  55  75 NW7       30.13R
ANDREWS AFB    SUNNY     67  55  66 NW10      30.11R
FT BELVOIR     SUNNY     62  59  90 NW5       30.12R
QUANTICO       MOSUNNY   64  56  75 NW5       30.13R
COLLEGE PARK*  SUNNY     63  59  88 CALM      30.11S
LEESBURG*      PTSUNNY   64  61  88 CALM      30.14S
MANASSAS*      CLOUDY    64  59  82 MISG      30.12R
GAITHERSBURG*  SUNNY     57  55  94 CALM      30.17R

$$

MDZ006>007-011-014-271300-
BALTIMORE METRO

CITY           SKY/WX    TMP DP  RH WIND       PRES   REMARKS
BWI AIRPORT    MOSUNNY   64  56  75 NW7       30.10R
MD SCIENCE CTR   N/A     68  53  58 MISG      30.11R
ANNAPOLIS      SUNNY     67  56  67 NW8       30.10R
FORT MEADE*    SUNNY     59  57  94 NW3       30.14R

$$

MDZ012-015-019>023-271300-
MARYLAND EASTERN SHORE

CITY           SKY/WX    TMP DP  RH WIND       PRES   REMARKS
OCEAN CITY     MOSUNNY   66  58  75 N7        30.08R
SALISBURY      MOSUNNY   62  57  83 N6        30.09R
BAY BRIDGE AP*   N/A     68  55  64 N7        30.10S
CAMBRIDGE*     SUNNY     70  59  68 NE3       30.09S
EASTON*        MOSUNNY   66  61  82 CALM      30.13R

$$

MDZ017>025-271300-
SOUTHERN MARYLAND

CITY           SKY/WX    TMP DP  RH WIND       PRES   REMARKS
PATUXENT RIVER PTSUNNY   67  57  70 NW8       30.10R
ST INIGOES     PTSUNNY   66  60  81 NE3       30.09R
LEONARDTOWN*   SUNNY     64  57  77 CALM      30.12R

$$

MDZ003>005-271300-
NORTH CENTRAL MARYLAND

CITY           SKY/WX    TMP DP  RH WIND       PRES   REMARKS
FREDERICK*     PTSUNNY   59  59 100 CALM      30.15S
HAGERSTOWN APT SUNNY     60  55  83 E3        30.14R
WESTMINSTER*   SUNNY     61  55  82 CALM      30.13S

$$

MDZ501>502-271300-
WESTERN MARYLAND

CITY           SKY/WX    TMP DP  RH WIND       PRES   REMARKS
OAKLAND*         N/A     52  52 100 CALM      30.20R FOG
CUMBERLAND*    SUNNY     55  55 100 CALM      30.20R

$$

VAZ025>031-271300-
SHENANDOAH VALLEY

CITY           SKY/WX    TMP DP  RH WIND       PRES   REMARKS
WINCHESTER*    CLOUDY    61  55  82 CALM      30.15R
FRONT ROYAL*   CLOUDY    61  55  82 CALM      30.15R
LURAY*         CLOUDY    57  55  94 CALM      30.16R
NEW MARKET*    PTSUNNY   56  54  92 CALM      30.16R
STAUNTON*      PTSUNNY   60  56  85 CALM      30.18R
WAYNESBORO*    FAIR      59  55  84 CALM      30.16R

$$

WVZ021-048>050-054>055-271300-
EASTERN WEST VIRGINIA PANHANDLE

CITY           SKY/WX    TMP DP  RH WIND       PRES   REMARKS
MARTINSBURG    PTSUNNY   59  55  87 CALM      30.15R
PETERSBURG*    MOSUNNY   55  53  94 CALM      30.18R

$$

VAZ036>039-050-271300-
CENTRAL FOOTHILLS

CITY           SKY/WX    TMP DP  RH WIND       PRES   REMARKS
CHARLOTTESVILL SUNNY     63  57  81 CALM      30.13R
CULPEPER*      PTSUNNY   62  58  86 N7        30.13S
ORANGE*        SUNNY     63  59  88 CALM      30.14S
GORDONSVILLE*  FAIR      64  57  77 NE6       30.13R
WARRENTON*     PTSUNNY   67  60  80 NW3       30.12S

$$

VAZ055>057-271300-
NORTH AND CENTRAL PIEDMONT

CITY           SKY/WX    TMP DP  RH WIND       PRES   REMARKS
FREDERICKSBRG* SUNNY     64  59  81 CALM      30.12R
STAFFORD*      SUNNY     64  55  75 N6        30.16R

$$

NCZ024-NYZ072-PAZ021-071-VAZ022-071-271300-
OTHER REGIONAL OBSERVATIONS

CITY           SKY/WX    TMP DP  RH WIND       PRES   REMARKS
NEW YORK CITY  PTSUNNY   69  54  58 CALM      30.08R
PHILADELPHIA   MOSUNNY   68  55  63 NW10      30.09R
PITTSBURGH     PTSUNNY   60  55  83 SW3       30.17R
ROANOKE        CLOUDY    62  56  80 W3        30.17R
RICHMOND       PTSUNNY   66  57  72 N9        30.11R
RALEIGH        PTSUNNY   69  60  73 NE6       30.08R

$$

ANZ530>537-271300-
MARINE OBSERVATIONS

STATION/POSITION TIME  TEMP    WIND        PRES
                       AIR SEA DIR/SP/G
                 (UTC) (F)     (DEG/KT/KT) (MB)
THOMAS PT LIGHT  NOT AVBL
BALT KEY BRIDGE  1100   67     310/ 13/ 15 1018.6R
COVE POINT       1100   70     350/ 15/ 17 1019.3R
LEWISETTA        1100   71 79   10/  5/  8 1018.2R
SOLOMONS ISLAND  1100      81                N/A
PINEY POINT      1118           30/ 10/ 12   N/A

$$



USA.gov is the U.S. government's official web portal to all federal, state and local government web resources and services.